Flag for United Kingdom Weather past 2 weeks in Taunton, England, United Kingdom

Now
52 °F

Cool.


Feels Like: 49 °F
Forecast: 48 / 60 °F
Wind: 8 mph from West

Location: Dunkeswell Aerodrome

Current Time: Oct 22, 2014 at 3:10:10 PM

Latest Report: Oct 22, 2014 at 2:00 PM


Visibility: 10 mi

Pressure: 30.33 "Hg

Humidity: 76%

Dew point: 45 °F

Location of TauntonLocation

Historic Weather in Taunton — Graph

°F

Taunton temperature yesterday

Maximum temperature yesterday: 54 °F (at 6:00 AM)
Minimum temperature yesterday: 46 °F (at 11:00 PM)
Average temperature yesterday: 50 °F

Past Weeks' High & Low Weather Summary

 TemperatureHumidityPressure
High62 °F (Oct 19, 1:00 PM)100% (Oct 8, 4:00 AM)30.37 "Hg (Oct 8, 4:00 AM)
Low41 °F (Oct 22, 6:00 AM)60% (Oct 10, 2:00 PM)29.26 "Hg (Oct 8, 2:00 PM)
Average52 °F93%29.75 "Hg
* Reported Oct 7 1:00 PM — Oct 22 1:00 PM, Taunton, Weather by CustomWeather, © 2014

Note: Actual official high and low records may vary slightly from our data, if they occured in-between our weather recording intervals... More about our weather records

Advertising

Taunton weather history for previous 24 hours

 ConditionsComfort  
Time TempWeatherWind HumidityBarometerVisibility
1:00 PM
Oct 22
51 °FCool.6 mph84%30.35 "Hg8 mi
12:00 PM49 °FCool.6 mph85%30.35 "Hg8 mi
11:00 AM50 °FCool.5 mph81%30.36 "Hg9 mi
10:00 AM49 °FCool.7 mph79%30.37 "Hg9 mi
9:00 AM46 °FCool.1 mph84%30.37 "Hg9 mi
8:00 AM46 °FCool.5 mph81%30.36 "Hg9 mi
7:00 AM45 °FCool.5 mph81%30.35 "Hg11 mi
6:00 AM41 °FQuite cool.2 mph87%30.35 "Hg11 mi
5:00 AM44 °FQuite cool.3 mph80%30.34 "Hg11 mi
4:00 AM45 °FCool.7 mph78%30.34 "Hg12 mi
3:00 AM46 °FCool.13 mph78%30.33 "Hg12 mi
2:00 AM45 °FCool.9 mph80%30.32 "Hg14 mi
1:00 AM46 °FCool.12 mph78%30.30 "Hg14 mi
12:00 AM46 °FCool.10 mph79%30.29 "Hg16 mi
11:00 PM
Oct 21
46 °FCool.10 mph76%30.25 "Hg16 mi
10:00 PM47 °FCool.12 mph72%30.24 "Hg16 mi
9:00 PM46 °FCool.13 mph72%30.19 "Hg14 mi
8:00 PM46 °FRain showers. Overcast.18 mph76%30.17 "Hg19 mi
7:00 PM46 °FCool.10 mph73%30.15 "Hg16 mi
6:00 PM47 °FCool.17 mph62%30.09 "Hg17 mi
5:00 PM51 °FCool.17 mph65%30.04 "Hg14 mi
4:00 PM52 °FCool.18 mph67%30.00 "Hg14 mi
3:00 PM50 °FRain showers. Cloudy.22 mph75%29.98 "Hg14 mi
Weather by CustomWeather, © 2014

See weather overviewHow to use our weather pages